Location: Unspecified
(0.0000°N, 0.0000°E)
Time: 03:50:01
(UTC+00:00)

Vanguard 1 - Pass Details

Date: 17 December 2023
Orbit: 653 x 3826 km, 34.3° (Epoch: 22 February)

Event Time Altitude Azimuth Distance (km) Brightness Sun altitude
Rises 18:39:09 0° 326° (NW) 5,893 14.2 -9.9°
Reaches altitude 10° 18:43:59 10° 340° (NNW) 5,379 13.8 -11.0°
Maximum altitude 18:57:11 24° 29° (NNE) 5,247 13.3 -14.0°
Enters shadow 19:06:57 18° 61° (ENE) 6,093 13.4 -16.2°
Drops below altitude 10° 19:13:53 10° 76° (ENE) 6,926 - -17.8°
Sets 19:21:18 0° 88° (E) 7,906 - -19.5°
